TimeAKST,TemperatureF,Dew PointF,Humidity,Sea Level PressureIn,VisibilityMPH,Wind Direction,Wind SpeedMPH,Gust SpeedMPH,PrecipitationIn,Events,Conditions,WindDirDegrees,DateUTC
12:56 AM,-22.9,-28.8,74,29.78,10.0,Calm,Calm,-,N/A,,Clear,0,2012-12-12 09:56:00
1:56 AM,-22.9,-28.8,74,29.75,10.0,NNE,5.8,-,N/A,,Clear,20,2012-12-12 10:56:00
2:56 AM,-24.9,-31.0,73,29.73,10.0,NNE,5.8,-,N/A,,Clear,20,2012-12-12 11:56:00
3:56 AM,-26.0,-31.9,73,29.71,10.0,NE,4.6,-,N/A,,Clear,50,2012-12-12 12:56:00
4:56 AM,-26.9,-33.0,73,29.69,10.0,NNE,4.6,-,N/A,,Clear,30,2012-12-12 13:56:00
5:56 AM,-26.9,-33.9,69,29.67,10.0,ENE,3.5,-,N/A,,Clear,60,2012-12-12 14:56:00
6:56 AM,-26.9,-33.9,69,29.65,10.0,NNE,5.8,-,N/A,,Clear,20,2012-12-12 15:56:00
7:56 AM,-24.9,-31.9,70,29.64,10.0,NNE,5.8,-,N/A,,Partly Cloudy,30,2012-12-12 16:56:00
8:56 AM,-26.0,-33.0,69,29.62,10.0,NNE,5.8,-,N/A,,Clear,30,2012-12-12 17:56:00
9:56 AM,-27.9,-35.0,69,29.62,10.0,NE,3.5,-,N/A,,Clear,40,2012-12-12 18:56:00
10:56 AM,-28.8,-35.9,69,29.60,10.0,NE,3.5,-,N/A,,Clear,40,2012-12-12 19:56:00
11:56 AM,-28.8,-35.9,69,29.60,10.0,Calm,Calm,-,N/A,,Partly Cloudy,0,2012-12-12 20:56:00
12:56 PM,-28.8,-35.9,69,29.60,10.0,Calm,Calm,-,N/A,,Clear,0,2012-12-12 21:56:00
1:56 PM,-26.9,-33.9,69,29.59,10.0,North,3.5,-,N/A,,Clear,360,2012-12-12 22:56:00
2:56 PM,-26.0,-31.9,73,29.59,8.0,Calm,Calm,-,N/A,,Clear,0,2012-12-12 23:56:00
3:56 PM,-24.9,-31.9,70,29.58,10.0,Calm,Calm,-,N/A,,Clear,0,2012-12-13 00:56:00
4:56 PM,-27.9,-35.0,69,29.58,4.0,Calm,Calm,-,N/A,,Haze,0,2012-12-13 01:56:00
5:56 PM,-28.8,-35.9,69,29.58,10.0,Calm,Calm,-,N/A,,Clear,0,2012-12-13 02:56:00
9:56 PM,-31.0,-9999,N/A,29.56,10.0,Calm,Calm,-,N/A,,Clear,0,2012-12-13 06:56:00
10:56 PM,-29.9,-9999,N/A,29.56,10.0,Calm,Calm,-,N/A,,Clear,0,2012-12-13 07:56:00
11:56 PM,-27.9,-35.0,69,29.56,10.0,South,6.9,-,N/A,,Clear,170,2012-12-13 08:56:00